User: anonymous   Login
Location: Hancock Field Station
(44.9202°N, 120.4259°W)
Time: 02:31:48
(UTC-07:00)
Language:

Nadezhda 4 Rocket - Orbit

View from above orbital plane
View from above orbital plane
View from above satellite
View from above satellite

Ground track
Ground track

The orbit data is extracted from the following two-line orbital elements,

1 23180U 94041B   17117.93701517 +.00000089 +00000-0 +73811-4 0  9993
2 23180 082.9447 328.4264 0029126 008.2811 105.8798 13.77940984145728
Epoch (UTC): 27 April 2017 22:29:18
Eccentricity: 0.0029126
inclination: 82.9447°
perigee height: 950 km
apogee height: 992 km
right ascension of ascending node: 328.4264°
argument of perigee: 8.2811°
revolutions per day: 13.77940984
mean anomaly at epoch: 105.8798°
orbit number at epoch: 14572

The dashed part of the orbit path shows where the satellite is in the earth's shadow,  

DLR